Regional Weather Roundup
Issued by NWS Goodland, KS

Home | Current Version | Previous Version | Graphics & Text | Print | Product List | Glossary On
Versions: 1 2 3 4 5 6 7 8 9 10 11 12 13 14 15 16 17 18 19 20 21 22 23 24 25 26 27 28 29 30 31 32 33 34 35 36 37 38 39 40 41 42 43 44 45 46 47 48 49 50
000
ASUS43 KGLD 230708
RWRGLD

GOODLAND FORECAST AREA HOURLY WEATHER ROUNDUP
NATIONAL WEATHER SERVICE GOODLAND KS
100 AM MDT WED APR 23 2014

...OFFICIAL OBSERVATIONS...

CITY           SKY/WX    TMP DP  RH WIND       PRES   REMARKS
GOODLAND KS    MOCLDY    59  46  62 S28G35    29.70F
HILL CITY KS   CLOUDY    60  37  42 S20G28    29.77F
IMPERIAL NEB   CLEAR     61  44  53 S24G32    29.65F
MCCOOK NEB     PTCLDY    61  36  39 S28G44    29.69F
AKRON CO       MOCLDY    63  41  44 S21G26    29.62F
BURLINGTON CO  PTCLDY    57  43  59 S22       29.69F
LIMON CO       CLOUDY    56  41  57 S12       29.70F
$$

...UNOFFICIAL OBSERVATIONS...

CITY           SKY/WX    TMP DP  RH WIND       PRES   REMARKS
COLBY KS       CLEAR     57  45  62 SE26G35   29.72F
LENORA KS        N/A     59  32  36 SE26        N/A
LEOTI KS         N/A     58  32  37 S10         N/A
NORTON KS      CLEAR     59  32  36 SE24G30   29.75F
OBERLIN KS     FAIR      59  36  41 S21G33    29.71F
SHARON SPRINGS   N/A     57  49  74 S18G25      N/A
ST FRANCIS KS  PTCLDY    59  45  58 S28G36    29.65F
WAKEENEY KS      N/A     58  32  37 MISG        N/A
KIT CARSON CO    N/A     57  42  58 MISG        N/A
$$



USA.gov is the U.S. government's official web portal to all federal, state and local government web resources and services.